Location: Newark
(51.2625°N, 13.3939°E)
Time: 08:24:25
(UTC+00:00)

Explorer 7 - Pass Details

Date: 17 November 2019
Orbit: 485 x 680 km, 50.3° (Epoch: 05 December)

Event Time Altitude Azimuth Distance (km) Brightness Sun altitude
Rises 02:16:02 0° 260° (W) 2,853 - -38.6°
Reaches altitude 10° 02:18:24 10° 259° (W) 1,917 - -38.2°
Maximum altitude 02:22:45 77° 174° (S) 582 - -37.6°
Drops below altitude 10° 02:26:51 10° 88° (E) 1,797 - -37.0°
Exits shadow 02:26:51 10° 88° (E) 1,799 10.1 -37.0°
Sets 02:29:00 0° 87° (E) 2,658 11.2 -36.6°
